VIPER58 EGPH-EGVA

Flight info

Callsign VIPER58
Flight time 0h 38m
Altitude 40000
Route EGPH TLA6D TLA DCT IPDOR DCT UNURO N864 ASRUS DCT ASCOM L612 VAMEB UL612 LISTO P18 TELBA L151 NEDEX DCT GIVIT DCT EGVA
Aircraft EUFI/M-V/N

Departure

Time 2026-04-21 21:17
Airport Edinburgh Airport (EGPH)

Arrival

Time 2026-04-21 21:56
Airport RAF Fairford (EGVA)
Time Latitude Longitude Altitude Speed Heading
2026-04-21 20:58 55.94999 -3.34749 109 ft 0 kts 26°
2026-04-21 21:09 55.94987 -3.34760 108 ft 2 kts 32°
2026-04-21 21:09 55.94974 -3.34777 108 ft 2 kts 39°
2026-04-21 21:09 55.94962 -3.34797 108 ft 2 kts 51°
2026-04-21 21:10 55.94954 -3.34823 108 ft 2 kts 71°
2026-04-21 21:10 55.94952 -3.34851 108 ft 2 kts 96°
2026-04-21 21:10 55.94955 -3.34875 108 ft 1 kts 115°
2026-04-21 21:10 55.94956 -3.34877 108 ft 0 kts 115°
2026-04-21 21:13 55.94942 -3.34844 108 ft 9 kts 140°
2026-04-21 21:13 55.94851 -3.34893 111 ft 14 kts 208°
2026-04-21 21:13 55.94855 -3.35040 111 ft 17 kts 301°
2026-04-21 21:13 55.94924 -3.35269 109 ft 25 kts 297°
2026-04-21 21:14 55.95035 -3.35626 107 ft 27 kts 301°
2026-04-21 21:14 55.95050 -3.35808 105 ft 14 kts 264°
2026-04-21 21:14 55.95048 -3.35945 105 ft 0 kts 254°
2026-04-21 21:14 55.95090 -3.36033 104 ft 11 kts 322°
2026-04-21 21:15 55.95133 -3.36211 102 ft 18 kts 281°
2026-04-21 21:15 55.95096 -3.36387 105 ft 25 kts 241°
2026-04-21 21:15 55.94951 -3.36820 104 ft 52 kts 238°
2026-04-21 21:15 55.94771 -3.37349 106 ft 46 kts 238°
2026-04-21 21:16 55.94661 -3.37676 110 ft 25 kts 239°
2026-04-21 21:16 55.94590 -3.37901 111 ft 13 kts 260°
2026-04-21 21:16 55.94623 -3.37981 111 ft 0 kts 328°
2026-04-21 21:17 55.94722 -3.38047 114 ft 25 kts 26°
2026-04-21 21:17 55.95088 -3.36982 116 ft 212 kts 59°
2026-04-21 21:17 55.95979 -3.34400 946 ft 271 kts 56°
2026-04-21 21:18 55.96709 -3.32605 1657 ft 257 kts 54°
2026-04-21 21:18 55.97679 -3.30327 2578 ft 212 kts 51°
2026-04-21 21:18 55.98817 -3.28722 3146 ft 199 kts 36°
2026-04-21 21:18 56.00010 -3.27443 2913 ft 188 kts 34°
2026-04-21 21:19 56.01287 -3.26114 3846 ft 248 kts 34°
2026-04-21 21:19 56.02762 -3.24580 4837 ft 247 kts 34°
2026-04-21 21:19 56.04279 -3.23030 5800 ft 251 kts 33°
2026-04-21 21:19 56.05803 -3.21491 6779 ft 256 kts 33°
2026-04-21 21:20 56.07368 -3.19934 7727 ft 260 kts 33°
2026-04-21 21:20 56.08973 -3.18364 8692 ft 266 kts 32°
2026-04-21 21:20 56.10620 -3.16782 9693 ft 270 kts 32°
2026-04-21 21:20 56.12294 -3.15203 10686 ft 275 kts 31°
2026-04-21 21:21 56.14014 -3.13608 11632 ft 281 kts 31°
2026-04-21 21:21 56.15768 -3.12010 12600 ft 285 kts 30°
2026-04-21 21:21 56.17374 -3.09980 13557 ft 284 kts 54°
2026-04-21 21:21 56.18152 -3.06764 14514 ft 284 kts 86°
2026-04-21 21:22 56.17821 -3.03304 15399 ft 289 kts 118°
2026-04-21 21:22 56.16466 -3.00659 16314 ft 291 kts 149°
2026-04-21 21:22 56.14491 -2.99650 17263 ft 307 kts 173°
2026-04-21 21:22 56.12344 -2.99513 18287 ft 309 kts 177°
2026-04-21 21:23 56.10182 -2.99565 19267 ft 314 kts 179°
2026-04-21 21:23 56.08002 -2.99679 20190 ft 319 kts 180°
2026-04-21 21:23 56.05762 -2.99819 21151 ft 324 kts 180°
2026-04-21 21:23 56.03482 -2.99971 22147 ft 338 kts 180°
2026-04-21 21:24 56.00785 -3.00178 23360 ft 445 kts 184°
2026-04-21 21:24 55.97310 -3.01190 24820 ft 570 kts 191°
2026-04-21 21:24 55.93236 -3.03460 26453 ft 628 kts 201°
2026-04-21 21:24 55.89167 -3.06578 28283 ft 644 kts 202°
2026-04-21 21:25 55.84947 -3.09549 30241 ft 660 kts 199°
2026-04-21 21:25 55.80550 -3.12316 32035 ft 679 kts 200°
2026-04-21 21:25 55.76126 -3.15361 33853 ft 698 kts 201°
2026-04-21 21:25 55.71492 -3.18496 35592 ft 722 kts 200°
2026-04-21 21:26 55.66752 -3.21791 37296 ft 745 kts 205°
2026-04-21 21:26 55.61986 -3.25843 39154 ft 769 kts 205°
2026-04-21 21:26 55.57004 -3.29758 40025 ft 790 kts 203°
2026-04-21 21:26 55.51961 -3.33588 40029 ft 790 kts 204°
2026-04-21 21:27 55.41980 -3.41797 39975 ft 793 kts 206°
2026-04-21 21:27 55.32181 -3.50564 39970 ft 794 kts 208°
2026-04-21 21:28 55.27081 -3.54383 39823 ft 798 kts 195°
2026-04-21 21:28 55.21607 -3.55904 39674 ft 795 kts 180°
2026-04-21 21:28 55.10898 -3.51660 39579 ft 797 kts 152°
2026-04-21 21:29 55.06379 -3.46285 39577 ft 797 kts 138°
2026-04-21 21:29 55.02394 -3.39529 39729 ft 801 kts 134°
2026-04-21 21:29 54.98472 -3.32661 39825 ft 803 kts 139°
2026-04-21 21:29 54.93904 -3.27106 39719 ft 802 kts 152°
2026-04-21 21:30 54.88850 -3.22928 39776 ft 803 kts 158°
2026-04-21 21:30 54.78293 -3.16513 39899 ft 802 kts 162°
2026-04-21 21:31 54.67397 -3.12207 39868 ft 804 kts 172°
2026-04-21 21:31 54.56407 -3.08615 39899 ft 807 kts 169°
2026-04-21 21:32 54.45381 -3.05126 39910 ft 806 kts 169°
2026-04-21 21:32 54.34434 -3.01534 39910 ft 802 kts 170°
2026-04-21 21:33 54.23464 -2.97641 39880 ft 806 kts 165°
2026-04-21 21:33 54.13121 -2.90301 39831 ft 805 kts 154°
2026-04-21 21:34 54.02785 -2.82802 39861 ft 806 kts 157°
2026-04-21 21:34 53.92544 -2.75247 39875 ft 807 kts 158°
2026-04-21 21:35 53.82197 -2.67818 39886 ft 806 kts 157°
2026-04-21 21:35 53.71866 -2.60441 39883 ft 807 kts 157°
2026-04-21 21:36 53.61518 -2.53042 39880 ft 809 kts 158°
2026-04-21 21:36 53.51217 -2.45742 39873 ft 806 kts 158°
2026-04-21 21:37 53.40833 -2.38423 39870 ft 809 kts 158°
2026-04-21 21:37 53.30451 -2.31134 39870 ft 807 kts 158°
2026-04-21 21:38 53.20114 -2.23922 39866 ft 806 kts 158°
2026-04-21 21:38 53.09370 -2.19117 39613 ft 800 kts 180°
2026-04-21 21:38 53.03857 -2.19941 39548 ft 794 kts 192°
2026-04-21 21:39 52.98461 -2.21965 39684 ft 796 kts 195°
2026-04-21 21:39 52.87728 -2.26587 39817 ft 797 kts 195°
2026-04-21 21:40 52.76797 -2.29174 39794 ft 798 kts 189°
2026-04-21 21:40 52.71324 -2.30690 39542 ft 798 kts 191°
2026-04-21 21:40 52.65848 -2.31565 37600 ft 774 kts 180°
2026-04-21 21:40 52.60636 -2.30343 35536 ft 750 kts 166°
2026-04-21 21:41 52.55813 -2.27293 33577 ft 732 kts 154°
2026-04-21 21:41 52.52213 -2.23270 31848 ft 511 kts 136°
2026-04-21 21:41 52.50090 -2.19064 30726 ft 466 kts 127°
2026-04-21 21:41 52.48157 -2.14979 29641 ft 439 kts 130°
2026-04-21 21:42 52.46144 -2.11342 28579 ft 425 kts 136°
2026-04-21 21:42 52.43988 -2.08058 27558 ft 421 kts 140°
2026-04-21 21:42 52.41907 -2.05165 26649 ft 407 kts 142°
2026-04-21 21:42 52.39573 -2.02349 25108 ft 403 kts 149°
2026-04-21 21:43 52.37235 -1.99995 23119 ft 385 kts 150°
2026-04-21 21:43 52.35033 -1.97754 21039 ft 360 kts 147°
2026-04-21 21:43 52.33037 -1.95553 19080 ft 333 kts 144°
2026-04-21 21:43 52.31212 -1.93523 17036 ft 310 kts 144°
2026-04-21 21:44 52.29447 -1.91612 15031 ft 300 kts 144°
2026-04-21 21:44 52.27716 -1.89774 12993 ft 290 kts 144°
2026-04-21 21:44 52.26062 -1.88017 10982 ft 279 kts 144°
2026-04-21 21:44 52.24460 -1.86295 8957 ft 273 kts 143°
2026-04-21 21:45 52.22894 -1.84608 6950 ft 267 kts 142°
2026-04-21 21:45 52.21378 -1.82983 5427 ft 240 kts 142°
2026-04-21 21:45 52.19996 -1.81511 5377 ft 240 kts 142°
2026-04-21 21:45 52.18574 -1.79973 5370 ft 257 kts 142°
2026-04-21 21:46 52.17113 -1.78408 5367 ft 254 kts 142°
2026-04-21 21:46 52.15643 -1.76843 5363 ft 251 kts 142°
2026-04-21 21:46 52.14168 -1.75279 5364 ft 253 kts 142°
2026-04-21 21:46 52.12696 -1.73727 5361 ft 252 kts 142°
2026-04-21 21:47 52.11217 -1.72169 5360 ft 253 kts 142°
2026-04-21 21:47 52.09744 -1.70620 5362 ft 253 kts 142°
2026-04-21 21:47 52.08260 -1.69060 5374 ft 254 kts 142°
2026-04-21 21:47 52.06779 -1.67503 5375 ft 252 kts 142°
2026-04-21 21:48 52.05309 -1.65962 5374 ft 241 kts 142°
2026-04-21 21:48 52.03886 -1.64483 5372 ft 246 kts 142°
2026-04-21 21:48 52.02449 -1.62983 5360 ft 246 kts 142°
2026-04-21 21:48 52.01002 -1.61458 5357 ft 249 kts 142°
2026-04-21 21:49 51.99560 -1.59932 4601 ft 244 kts 142°
2026-04-21 21:49 51.98142 -1.58440 4447 ft 245 kts 142°
2026-04-21 21:49 51.96709 -1.56924 4512 ft 245 kts 142°
2026-04-21 21:49 51.95271 -1.55407 4536 ft 247 kts 142°
2026-04-21 21:50 51.93827 -1.53892 4542 ft 247 kts 142°
2026-04-21 21:50 51.92224 -1.52854 4561 ft 258 kts 171°
2026-04-21 21:50 51.90746 -1.53363 4570 ft 189 kts 197°
2026-04-21 21:50 51.89521 -1.54364 4570 ft 199 kts 200°
2026-04-21 21:51 51.88321 -1.55447 4591 ft 199 kts 202°
2026-04-21 21:51 51.87119 -1.56565 4551 ft 202 kts 202°
2026-04-21 21:51 51.85917 -1.57692 4275 ft 198 kts 202°
2026-04-21 21:51 51.84720 -1.58822 4020 ft 200 kts 202°
2026-04-21 21:52 51.83527 -1.59955 3775 ft 198 kts 202°
2026-04-21 21:52 51.82338 -1.61088 3522 ft 198 kts 202°
2026-04-21 21:52 51.81159 -1.62211 3234 ft 197 kts 202°
2026-04-21 21:52 51.79991 -1.63322 2991 ft 198 kts 202°
2026-04-21 21:53 51.78808 -1.64447 2742 ft 197 kts 202°
2026-04-21 21:53 51.77632 -1.65569 2480 ft 195 kts 202°
2026-04-21 21:53 51.76457 -1.66683 2222 ft 197 kts 202°
2026-04-21 21:53 51.75279 -1.67805 1967 ft 195 kts 202°
2026-04-21 21:54 51.74090 -1.68923 1719 ft 197 kts 203°
2026-04-21 21:54 51.72969 -1.69986 1467 ft 188 kts 204°
2026-04-21 21:54 51.71852 -1.71045 1233 ft 182 kts 206°
2026-04-21 21:54 51.70829 -1.72118 1004 ft 176 kts 218°
2026-04-21 21:55 51.69912 -1.73386 805 ft 175 kts 216°
2026-04-21 21:55 51.68964 -1.74593 593 ft 174 kts 223°
2026-04-21 21:55 51.68401 -1.76255 308 ft 173 kts 268°
2026-04-21 21:55 51.68384 -1.77975 270 ft 118 kts 269°
2026-04-21 21:56 51.68357 -1.78784 274 ft 57 kts 268°
2026-04-21 21:56 51.68345 -1.79365 279 ft 47 kts 269°
2026-04-21 21:56 51.68273 -1.79605 280 ft 20 kts 176°
2026-04-21 21:56 51.68145 -1.79603 280 ft 17 kts 180°
2026-04-21 21:57 51.68056 -1.79674 281 ft 15 kts 249°
2026-04-21 21:57 51.68046 -1.79824 282 ft 13 kts 268°
2026-04-21 21:57 51.68044 -1.79887 282 ft 0 kts 268°